Regional Weather Roundup
Issued by NWS Northern Indiana

Home | Current Version | Previous Version | Text Only | Print | Product List | Glossary Off
Versions: 1 2 3 4 5 6 7 8 9 10 11 12 13 14 15 16 17 18 19 20 21 22 23 24 25 26 27 28 29 30 31 32 33 34 35 36 37 38 39 40 41 42 43 44 45 46 47 48 49 50

000
ASUS43 KIWX 011510
RWRIWX

KIWX WEATHER ROUNDUP
NATIONAL WEATHER SERVICE NORTHERN INDIANA
1000 AM EST SUN FEB 01 2015

NOTE: "FAIR" INDICATES FEW OR NO CLOUDS BELOW 12,000 FEET WITH NO
SIGNIFICANT WEATHER AND/OR OBSTRUCTIONS TO VISIBILITY.

* THESE STATIONS ARE NOT UNDER NWS QUALITY CONTROL. THEY ALSO MAY NOT
  REPORT WEATHER SUCH AS PRECIPITATION OR FOG.

INZ001>027-011600-
NORTHERN INDIANA

CITY           SKY/WX    TMP DP  RH WIND       PRES   REMARKS
GARY*          LGT SNOW  34  32  93 CALM      29.91F VSB 1
VALPARAISO     LGT SNOW  32  31  96 E9        29.90F VSB 3/4 WCI  24
MICHIGAN CITY* SNOW      32  30  93 E5        29.93F VSB 1/2 WCI  27
LAPORTE*       SNOW      33  33 100 E7        29.92F VSB 1/2 WCI  27
KNOX*          CLOUDY    32  28  86 E6        29.90F VSB 3/4 WCI  26
SOUTH BEND     SNOW      31  28  89 E13G22    29.94F VSB 1/2 WCI  21
GOSHEN         SNOW      31  31 100 E16       29.95F VSB 1/4 WCI  20
MONTICELLO*    RAIN      33  32  96 SE5       29.88F WCI  29
LOGANSPORT*    LGT SNOW  32  32 100 E12       29.90F WCI  23
ROCHESTER*     LGT RAIN  36 N/A N/A SE5       29.92F
WARSAW*        LGT SNOW  32  32 100 E9        29.94F VSB 1   WCI  24
ANGOLA*        CLOUDY    27  25  93 E14       29.98F WCI  15
FORT WAYNE     CLOUDY    33  32  96 E14       29.96F FOG     WCI  23
HUNTINGTON*    CLOUDY    33  31  92 E9        29.94F FOG     WCI  25
PERU/GRISSOM   CLOUDY    34  31  90 E13       29.89F WCI  25
MARION*        CLOUDY    34  31  88 SE12      29.91F WCI  25

$$
INZ028>050-011600-
CENTRAL INDIANA

CITY           SKY/WX    TMP DP  RH WIND       PRES   REMARKS
LAFAYETTE      LGT SNOW  32  31  96 E12       29.86F VSB 3/4 WCI  23
KOKOMO*        CLOUDY    34  28  80 SE10      29.91S WCI  26
MUNCIE*        CLOUDY    35  31  85 SE14      29.92F WCI  26
INDIANAPOLIS   LGT SNOW  32  28  85 SE6       29.89F FOG     WCI  26

$$
MIZ043>046-050>051-056>058-064>065-071>073-077>080-011600-
SOUTHWEST LOWER MICHIGAN

CITY           SKY/WX    TMP DP  RH WIND       PRES   REMARKS
BATTLE CREEK   SNOW      22  17  81 E12       30.04F VSB 1/2 WCI  10
BENTON HARBOR  SNOW      25  24  96 E14G24    29.97F VSB 1/4 WCI  13
COLDWATER*     LGT SNOW  27  25  92 E15G23    30.00F VSB 3/4 WCI  15
HILLSDALE*     SNOW      26  24  94 E17       30.01F VSB 1/2 WCI  13
HOLLAND        SNOW      20  15  81 E14G21    30.07F VSB 1/2 WCI   7
GRAND RAPIDS   LGT SNOW  17  13  84 E15       30.09F VSB 3/4 WCI   2
KALAMAZOO      SNOW      23  19  85 NE12G17   30.03F VSB 1/4 WCI  12
STURGIS*       SNOW      28  27  93 E5G20     29.97F VSB 1/2 WCI  23
THREE RIVERS*  LGT SNOW  26  24  91 E14       29.99F VSB 3/4 WCI  14

$$
OHZ001>008-015>018-024>025-011600-
NORTHWEST OHIO

CITY           SKY/WX    TMP DP  RH WIND       PRES   REMARKS
DEFIANCE       LGT SNOW  30  27  88 E12       30.02F VSB 1   WCI  20
FINDLAY        SNOW      33  31  92 E12       30.01F VSB 1/2 WCI  24
TOLEDO EXPRESS SNOW      25  23  92 E18       30.07F VSB 1/2 WCI  11
TOLEDO METCALF SNOW      27  24  89 NE12      30.09F VSB 1/2 WCI  17
LIMA           CLOUDY    35  32  88 E12       29.98F FOG     WCI  27

$$
AND FOR LAKE MICHIGAN COASTAL AND OPEN LAKE BUOY OBSERVATIONS

STATION/POSITION TEMP    WIND        PRES    VSBY  WAVE
                 AIR SEA DIR/SP/G                  HT/PER
                 (F)     (DEG/KT/KT) (MB)    (MI)  (FT/S)
CALUMET HARBOR    31      60/ 15/ 18   N/A
MICHIGAN CITY     30      60/ 10/ 13   N/A
SAINT JOSEPH      26      30/  3/ 10 1014.6F

$$
&&


USA.gov is the U.S. government's official web portal to all federal, state and local government web resources and services.